Location: State Camp
(41.2367°N, 77.7828°W)
Time: 08:53:18
(UTC-05:00)

Hubble Space Telescope - Visible Passes

Search period start: 28 February 2015 00:00
Search period end: 10 March 2015 01:00
Orbit: 543 x 548 km, 28.5° (Epoch: 26 February)

Date Brightness Start Highest point End Pass type
(mag) Time Alt. Az. Time Alt. Az. Time Alt. Az.
28 Feb 3.1 05:43:46 10° SSW 05:45:59 14° S 05:48:11 10° SSE visible
01 Mar 3.1 05:35:31 10° SW 05:37:40 14° S 05:39:48 10° SSE visible
02 Mar 3.0 05:27:43 11° SSW 05:29:21 13° S 05:31:20 10° SSE visible
03 Mar 3.0 05:19:59 11° SSW 05:21:01 12° S 05:22:43 10° SSE visible
04 Mar 3.1 05:12:17 11° SSW 05:12:41 11° S 05:13:52 10° S visible
